Radiation Dose at Monitoring Post of Fukushima Daini Nuclear Power Station
Date,Time,MP-1(microSv/h),MP-2(microSv/h),MP-3(microSv/h),MP-4(microSv/h),MP-5(microSv/h),MP-6(microSv/h),MP-7(microSv/h),Wind Direction,Wind Velocity(m/s),Rain
2024/06/08,00:00,0.147,0.130,0.209,0.196,0.205,0.114,0.074,south,3.9,No
2024/06/08,00:10,0.145,0.130,0.208,0.197,0.206,0.114,0.074,south,3.7,No
2024/06/08,00:20,0.145,0.129,0.209,0.196,0.206,0.114,0.074,south,3.5,No
2024/06/08,00:30,0.146,0.130,0.209,0.197,0.205,0.113,0.074,south-southwest,4.5,Yes
2024/06/08,00:40,0.146,0.130,0.209,0.196,0.205,0.113,0.074,south-southwest,4.2,No
2024/06/08,00:50,0.146,0.128,0.208,0.196,0.206,0.113,0.074,south-southwest,4.1,No
2024/06/08,01:00,0.145,0.130,0.209,0.196,0.204,0.114,0.074,south-southwest,3.7,No
2024/06/08,01:10,0.146,0.129,0.208,0.195,0.206,0.114,0.074,south-southwest,3.4,No
2024/06/08,01:20,0.144,0.130,0.208,0.196,0.207,0.115,0.074,south-southwest,3.5,No
2024/06/08,01:30,0.145,0.129,0.210,0.195,0.204,0.114,0.075,south-southwest,2.8,No
2024/06/08,01:40,0.145,0.129,0.210,0.196,0.206,0.114,0.075,south-southwest,2.5,No
2024/06/08,01:50,0.145,0.130,0.208,0.196,0.206,0.113,0.074,south-southwest,2.4,Yes
2024/06/08,02:00,0.146,0.129,0.208,0.195,0.205,0.115,0.073,south-southwest,2.9,No
2024/06/08,02:10,0.146,0.129,0.209,0.196,0.203,0.114,0.074,south,2.7,No
2024/06/08,02:20,0.145,0.128,0.209,0.196,0.205,0.114,0.074,south,2.1,No
2024/06/08,02:30,0.145,0.129,0.209,0.197,0.205,0.115,0.074,south,1.3,No
2024/06/08,02:40,0.145,0.129,0.208,0.196,0.205,0.115,0.074,south-southwest,1.4,No
2024/06/08,02:50,0.144,0.128,0.209,0.196,0.206,0.115,0.074,south-southwest,2.0,No
2024/06/08,03:00,0.146,0.129,0.208,0.196,0.205,0.114,0.074,south-southwest,2.0,No
2024/06/08,03:10,0.146,0.130,0.208,0.195,0.205,0.114,0.074,south-southwest,2.2,No
2024/06/08,03:20,0.146,0.129,0.209,0.195,0.204,0.114,0.074,south-southwest,2.2,Yes
2024/06/08,03:30,0.146,0.130,0.208,0.195,0.206,0.114,0.074,south-southwest,2.3,No
2024/06/08,03:40,0.145,0.129,0.209,0.195,0.204,0.114,0.074,south-southwest,2.7,No
2024/06/08,03:50,0.146,0.128,0.208,0.196,0.206,0.114,0.073,south-southwest,2.9,Yes
2024/06/08,04:00,0.145,0.130,0.209,0.194,0.203,0.114,0.073,south-southwest,2.8,No
2024/06/08,04:10,0.146,0.129,0.209,0.196,0.204,0.114,0.074,south-southwest,2.4,No
2024/06/08,04:20,0.145,0.129,0.208,0.195,0.204,0.114,0.074,south,2.6,No
2024/06/08,04:30,0.145,0.129,0.208,0.196,0.206,0.114,0.074,south,2.8,No
2024/06/08,04:40,0.146,0.129,0.209,0.195,0.205,0.114,0.073,south-southwest,2.6,No
2024/06/08,04:50,0.146,0.129,0.207,0.194,0.205,0.113,0.074,south-southwest,2.7,Yes
2024/06/08,05:00,0.145,0.129,0.208,0.196,0.206,0.114,0.074,southwest,3.0,No
2024/06/08,05:10,0.145,0.129,0.208,0.194,0.203,0.114,0.073,south-southwest,2.3,No
2024/06/08,05:20,0.145,0.128,0.208,0.196,0.206,0.113,0.074,south-southwest,1.8,No
2024/06/08,05:30,0.146,0.130,0.208,0.194,0.205,0.114,0.073,south-southwest,2.2,No
2024/06/08,05:40,0.146,0.129,0.209,0.196,0.204,0.113,0.074,south-southwest,2.2,No
2024/06/08,05:50,0.144,0.130,0.207,0.195,0.205,0.114,0.073,south-southwest,2.3,No
2024/06/08,06:00,0.145,0.128,0.207,0.195,0.202,0.114,0.073,south,2.2,Yes
2024/06/08,06:10,0.145,0.128,0.207,0.196,0.203,0.115,0.075,south,2.6,No
2024/06/08,06:20,0.146,0.129,0.208,0.195,0.206,0.113,0.073,south-southeast,2.9,No
2024/06/08,06:30,0.144,0.128,0.207,0.195,0.203,0.114,0.074,south-southeast,2.7,No
2024/06/08,06:40,0.146,0.129,0.209,0.196,0.206,0.114,0.074,south,1.7,No
2024/06/08,06:50,0.146,0.130,0.207,0.194,0.206,0.114,0.074,south,2.0,No
2024/06/08,07:00,0.144,0.129,0.209,0.196,0.204,0.114,0.073,south-southeast,2.3,No
2024/06/08,07:10,0.146,0.127,0.208,0.195,0.206,0.113,0.074,south-southeast,3.1,No
2024/06/08,07:20,0.146,0.130,0.206,0.193,0.204,0.113,0.074,south-southeast,3.5,No
2024/06/08,07:30,0.146,0.130,0.205,0.196,0.204,0.115,0.075,southeast,2.6,No
2024/06/08,07:40,0.144,0.129,0.204,0.194,0.207,0.114,0.075,southeast,2.1,No
2024/06/08,07:50,0.144,0.129,0.206,0.193,0.205,0.114,0.074,southeast,2.5,No
2024/06/08,08:00,0.145,0.131,0.208,0.194,0.203,0.114,0.073,southeast,2.5,No
2024/06/08,08:10,0.146,0.130,0.209,0.196,0.205,0.113,0.073,south-southeast,2.1,No
2024/06/08,08:20,0.145,0.128,0.208,0.194,0.205,0.113,0.073,south,1.6,No
2024/06/08,08:30,0.144,0.129,0.207,0.194,0.204,0.114,0.074,-,CALM,Yes
2024/06/08,08:40,0.144,0.131,0.206,0.194,0.203,0.115,0.075,-,CALM,No
2024/06/08,08:50,0.144,0.129,0.206,0.193,0.202,0.113,0.074,southeast,2.4,No
2024/06/08,09:00,0.143,0.129,0.207,0.193,0.205,0.113,0.074,southeast,2.7,No
2024/06/08,09:10,0.143,0.129,0.205,0.192,0.205,0.113,0.073,south-southeast,3.0,No
2024/06/08,09:20,0.143,0.127,0.207,0.193,0.205,0.113,0.073,south-southeast,2.6,No
2024/06/08,09:30,0.144,0.127,0.206,0.194,0.204,0.114,0.073,southeast,3.2,No
2024/06/08,09:40,0.143,0.128,0.207,0.194,0.204,0.113,0.073,south-southeast,3.1,No
2024/06/08,09:50,0.145,0.127,0.208,0.193,0.203,0.114,0.073,south-southeast,2.4,No
2024/06/08,10:00,0.145,0.129,0.206,0.193,0.203,0.112,0.073,south-southeast,1.7,No
2024/06/08,10:10,0.145,0.130,0.207,0.193,0.202,0.114,0.073,south-southeast,3.9,No
2024/06/08,10:20,0.145,0.129,0.207,0.193,0.203,0.114,0.073,south,2.2,No
2024/06/08,10:30,0.144,0.128,0.207,0.194,0.206,0.113,0.074,south-southeast,3.2,No
2024/06/08,10:40,0.144,0.129,0.207,0.194,0.207,0.114,0.074,south-southeast,4.5,No
2024/06/08,10:50,0.144,0.128,0.207,0.194,0.206,0.114,0.073,south,5.2,No
2024/06/08,11:00,0.146,0.128,0.207,0.194,0.204,0.113,0.072,south,4.2,No
2024/06/08,11:10,0.145,0.127,0.207,0.194,0.203,0.114,0.073,south-southeast,4.9,No
2024/06/08,11:20,0.145,0.128,0.208,0.194,0.204,0.115,0.073,south,5.6,No
2024/06/08,11:30,0.144,0.127,0.206,0.195,0.204,0.113,0.073,south-southeast,6.1,No
2024/06/08,11:40,0.144,0.129,0.208,0.195,0.202,0.114,0.073,south,2.7,No
2024/06/08,11:50,0.145,0.129,0.207,0.197,0.202,0.114,0.073,-,CALM,No
2024/06/08,12:00,0.145,0.129,0.207,0.197,0.205,0.114,0.074,south-southeast,6.6,No
2024/06/08,12:10,0.145,0.128,0.207,0.196,0.206,0.114,0.074,south-southeast,5.2,No
2024/06/08,12:20,0.144,0.129,0.207,0.195,0.206,0.113,0.074,south-southeast,5.0,Yes
2024/06/08,12:30,0.145,0.128,0.208,0.196,0.205,0.113,0.074,south-southeast,4.8,No
2024/06/08,12:40,0.144,0.129,0.207,0.194,0.203,0.113,0.073,south-southeast,5.9,No
2024/06/08,12:50,0.145,0.129,0.208,0.194,0.202,0.114,0.073,south,4.5,No
2024/06/08,13:00,0.144,0.129,0.207,0.194,0.204,0.114,0.073,south,4.2,Yes
2024/06/08,13:10,0.144,0.128,0.207,0.195,0.205,0.114,0.073,south-southeast,3.7,No
2024/06/08,13:20,0.144,0.129,0.208,0.194,0.204,0.114,0.074,south-southeast,4.3,No
2024/06/08,13:30,0.144,0.127,0.207,0.194,0.204,0.114,0.074,south-southeast,6.1,No
2024/06/08,13:40,0.146,0.128,0.207,0.194,0.204,0.114,0.074,-,CALM,No
2024/06/08,13:50,0.145,0.129,0.208,0.194,0.204,0.114,0.074,-,CALM,No
2024/06/08,14:00,0.144,0.129,0.208,0.193,0.204,0.114,0.073,south-southeast,1.7,No
2024/06/08,14:10,0.145,0.128,0.209,0.196,0.204,0.114,0.073,south-southeast,5.6,No
2024/06/08,14:20,0.146,0.128,0.208,0.194,0.204,0.114,0.073,south,5.8,No
2024/06/08,14:30,0.144,0.128,0.208,0.194,0.204,0.114,0.073,south-southeast,5.1,No
2024/06/08,14:40,0.145,0.128,0.207,0.194,0.205,0.115,0.073,south-southeast,4.9,No
2024/06/08,14:50,0.145,0.128,0.208,0.196,0.205,0.115,0.073,south-southeast,4.4,No
2024/06/08,15:00,0.144,0.129,0.208,0.194,0.204,0.114,0.072,south,3.9,No
2024/06/08,15:10,0.145,0.129,0.208,0.195,0.205,0.115,0.073,south-southeast,3.8,Yes
2024/06/08,15:20,0.145,0.129,0.208,0.195,0.204,0.113,0.074,south-southeast,3.8,No
2024/06/08,15:30,0.144,0.129,0.208,0.197,0.204,0.114,0.074,south-southeast,5.6,No
2024/06/08,15:40,0.146,0.129,0.207,0.198,0.205,0.114,0.074,south-southeast,5.5,No
2024/06/08,15:50,0.144,0.130,0.210,0.197,0.204,0.114,0.074,south-southeast,5.3,No
2024/06/08,16:00,0.145,0.129,0.211,0.196,0.204,0.115,0.073,south-southeast,5.2,No
2024/06/08,16:10,0.146,0.128,0.209,0.196,0.203,0.113,0.074,south-southeast,7.0,No
2024/06/08,16:20,0.144,0.129,0.208,0.198,0.204,0.113,0.074,south-southeast,6.1,No
2024/06/08,16:30,0.143,0.130,0.211,0.197,0.204,0.114,0.073,south-southeast,6.6,No
2024/06/08,16:40,0.145,0.128,0.210,0.195,0.202,0.114,0.074,south-southeast,6.8,No
2024/06/08,16:50,0.146,0.130,0.209,0.199,0.206,0.114,0.074,south-southeast,6.0,No
2024/06/08,17:00,0.147,0.130,0.211,0.196,0.207,0.113,0.074,south-southeast,5.6,Yes
2024/06/08,17:10,0.145,0.129,0.209,0.195,0.205,0.114,0.074,south-southeast,6.1,No
2024/06/08,17:20,0.144,0.130,0.210,0.198,0.203,0.113,0.074,south-southeast,6.1,No
2024/06/08,17:30,0.146,0.129,0.211,0.197,0.206,0.113,0.074,south-southeast,6.2,No
2024/06/08,17:40,0.146,0.129,0.208,0.196,0.208,0.114,0.074,south-southeast,6.4,No
2024/06/08,17:50,0.144,0.130,0.211,0.199,0.206,0.114,0.073,south-southeast,6.2,No
2024/06/08,18:00,0.147,0.129,0.210,0.197,0.207,0.114,0.073,south-southeast,6.1,No
2024/06/08,18:10,0.145,0.130,0.208,0.197,0.207,0.114,0.074,south-southeast,6.9,No
2024/06/08,18:20,0.145,0.130,0.211,0.198,0.204,0.113,0.074,south-southeast,6.4,No
2024/06/08,18:30,0.147,0.130,0.209,0.196,0.207,0.115,0.073,south-southeast,5.6,No
2024/06/08,18:40,0.146,0.130,0.210,0.199,0.205,0.114,0.074,south-southeast,6.4,No
2024/06/08,18:50,0.145,0.129,0.209,0.196,0.207,0.114,0.073,south,6.9,No
2024/06/08,19:00,0.146,0.130,0.210,0.198,0.206,0.114,0.073,south-southeast,6.5,No
2024/06/08,19:10,0.144,0.129,0.211,0.197,0.204,0.114,0.074,south-southeast,6.3,No
2024/06/08,19:20,0.147,0.130,0.210,0.196,0.207,0.114,0.074,south,6.2,No
2024/06/08,19:30,0.145,0.129,0.212,0.198,0.205,0.114,0.074,south-southeast,5.2,No
2024/06/08,19:40,0.145,0.129,0.209,0.197,0.207,0.113,0.074,south,5.9,No
2024/06/08,19:50,0.145,0.130,0.211,0.198,0.205,0.114,0.074,south,4.7,Yes
2024/06/08,20:00,0.145,0.130,0.208,0.196,0.205,0.114,0.073,south,4.8,No
2024/06/08,20:10,0.146,0.130,0.211,0.197,0.207,0.114,0.073,south,4.8,No
2024/06/08,20:20,0.145,0.130,0.209,0.198,0.204,0.114,0.074,south,4.2,No
2024/06/08,20:30,0.146,0.130,0.211,0.196,0.205,0.114,0.074,south,5.0,No
2024/06/08,20:40,0.146,0.129,0.209,0.197,0.205,0.114,0.074,south,4.2,No
2024/06/08,20:50,0.146,0.129,0.211,0.196,0.206,0.114,0.075,south,4.8,No
2024/06/08,21:00,0.145,0.130,0.210,0.198,0.206,0.113,0.073,south,5.1,No
2024/06/08,21:10,0.146,0.129,0.211,0.196,0.205,0.114,0.074,south,5.8,No
2024/06/08,21:20,0.146,0.129,0.209,0.197,0.206,0.113,0.073,south,6.6,No
2024/06/08,21:30,0.145,0.130,0.210,0.196,0.204,0.114,0.074,south,5.6,No
2024/06/08,21:40,0.147,0.129,0.210,0.198,0.206,0.114,0.073,south,5.7,No
2024/06/08,21:50,0.146,0.130,0.209,0.197,0.204,0.113,0.074,south,6.2,No
2024/06/08,22:00,0.147,0.130,0.209,0.197,0.207,0.114,0.073,south,6.1,No
2024/06/08,22:10,0.145,0.130,0.209,0.198,0.204,0.113,0.074,south,6.0,No
2024/06/08,22:20,0.146,0.129,0.210,0.196,0.205,0.114,0.073,south,5.9,No
2024/06/08,22:30,0.145,0.130,0.209,0.197,0.206,0.114,0.073,south,5.5,Yes
2024/06/08,22:40,0.146,0.129,0.209,0.195,0.204,0.114,0.073,south,5.2,No
2024/06/08,22:50,0.146,0.130,0.209,0.197,0.207,0.115,0.073,south,5.5,No
2024/06/08,23:00,0.146,0.130,0.209,0.195,0.204,0.114,0.074,south,4.8,No
2024/06/08,23:10,0.145,0.129,0.210,0.197,0.208,0.114,0.073,south,4.6,No
2024/06/08,23:20,0.146,0.130,0.210,0.196,0.204,0.113,0.074,south,4.1,No
2024/06/08,23:30,0.146,0.130,0.210,0.198,0.207,0.115,0.074,south,3.0,No
2024/06/08,23:40,0.146,0.130,0.211,0.196,0.205,0.113,0.075,south,4.7,No
2024/06/08,23:50,0.147,0.130,0.209,0.197,0.207,0.114,0.074,south,4.9,No
